Zurück zum Katalog

STARLINK-3777

AktivKommunikationVLEO
NORAD 52294·PAYLOAD·🇺🇸 United States

Gestartet Apr 21, 2022 von Cape Canaveral Space Force Station

Loading…

Nächste Überflüge (nächste 24 Stunden)

TLE

AktuellSource: CelesTrak SupGP

Epoche: Sep 14, 2026, 22:07 UTC

1 52294C 22041AK  26257.92201389 -.00003740  00000+0 -11350-3 0  2572
2 52294  53.1577 317.8921 0001244  87.2591 184.6364 15.33544788    17

Verfolge STARLINK-3777 in Echtzeit mit AllMySat

Download on the App Store